sat.trackr.live / text

‹ back to catalog

AMC-6

NORAD 26580 · 2000-067A

PAYLOAD ACTIVE UNKNOWN

§ Identity

Operator
Country
SES
Launch date
2000-10-21
Launch site
TYMSC
Launch vehicle
Mass (kg)
RCS (m²)
13.61

Purposes: comms

External: N2YO · Heavens-Above · Gunter

§ Orbital elements

Epoch: 2026-05-25T03:10:18.844320Z

Period
1,436.11 min
Inclination
0.1133°
Eccentricity
0.0003550
Mean motion
1.00270926 rev/d
Perigee alt
35,771.9 km
Apogee alt
35,801.8 km
Semi-major
42,165.0 km
B*
0.0000e+0
RAAN
79.7910°
Arg perigee
346.6461°
Mean anomaly
88.8148°
Rev number
9,366

§ Raw data

AMC-61 26580U 00067A   26145.13216255  .00000086  00000+0  00000+0 0  99992 26580   0.1133  79.7910 0003550 346.6461  88.8148  1.00270926 93665

JSON: /api/v1/satellites/26580 · /tle

For live sub-satellite position, see the globe view (requires WebGL).

§ Visibility from observer

Set your observer location to see the next 7 days of passes ≥ 10°. The values pass through the URL so the page stays shareable.

No JS? Fill the form by hand. The geolocation button needs JavaScript.